Location: Boćki
(52.6512°N, 23.0459°E)
Time: 21:16:35
(UTC+01:00)

ISS - Pass Details

Date: 31 January 2019
Orbit: 403 x 411 km, 51.6° (Epoch: 22 February)

Event Time Altitude Azimuth Distance (km) Brightness Sun altitude
Rises 18:10:40 0° 269° (W) 2,336 1.8 -18.1°
Reaches altitude 10° 18:12:45 10° 268° (W) 1,477 0.3 -18.4°
Maximum altitude 18:16:03 76° 183° (S) 428 -3.8 -18.9°
Enters shadow 18:16:20 69° 134° (SE) 444 -3.9 -19.0°
